Gold Coast Seaway Observation History
Time Wind Speed Temp Pressure Rel. Hum Rain
16/09:00pm SE 14-17 kts 24.8°c 1011.8 hPa 67% 0.0mm
16/08:30pm SE 14-17 kts 24.9°c 1011.6 hPa 69% 0.0mm
16/08:00pm SE 15-19 kts 24.4°c 1011.2 hPa 72% 0.0mm
16/07:30pm SSE 13-19 kts 24.4°c 1011.0 hPa 69% 0.0mm
16/07:00pm SE 15-18 kts 25.1°c 1010.4 hPa 72% 0.0mm
16/06:30pm SE 17-20 kts 25.1°c 1009.5 hPa 72% 0.0mm
16/06:00pm SE 18-21 kts 25.1°c 1008.6 hPa 72% 0.0mm
16/05:30pm SE 19-22 kts 25.3°c 1008.0 hPa 71% 0.0mm
16/05:00pm SE 18-21 kts 24.8°c 1007.7 hPa 75% 0.0mm
16/04:30pm ESE 15-19 kts 25.5°c 1008.4 hPa 73% 0.0mm
16/04:00pm SE 17-19 kts 25.9°c 1007.3 hPa 70% 0.0mm
16/03:30pm SE 19-23 kts 27.0°c 1006.7 hPa 64% 0.0mm
16/03:00pm SE 16-19 kts 26.3°c 1007.0 hPa 74% 0.0mm
16/02:30pm SSE 16-20 kts 27.6°c 1007.0 hPa 70% 0.0mm
16/02:00pm SE 16-20 kts 28.0°c 1007.0 hPa 70% 0.0mm
16/01:30pm SE 19-23 kts 27.5°c 1007.1 hPa 73% 0.0mm
16/01:00pm SE 18-22 kts 27.0°c 1007.2 hPa 70% 0.0mm
16/12:49pm ESE 12-20 kts 27.5°c 1007.1 hPa 66% 0.0mm
16/12:30pm ENE 9-11 kts 29.5°c 1006.6 hPa 66% 0.0mm
16/12:00pm NE 12-14 kts 28.5°c 1006.4 hPa 69% 0.0mm
16/11:30am NE 5-9 kts 30.1°c 1006.4 hPa 57% 0.0mm
16/11:00am NW 7-12 kts 31.2°c 1006.5 hPa 51% 0.0mm
16/10:30am NW 6-10 kts 30.7°c 1006.6 hPa 53% 0.0mm
16/10:00am NW 6-10 kts 29.2°c 1006.7 hPa 59% 0.0mm
16/09:30am NW 7-10 kts 28.7°c 1006.7 hPa 60% 0.0mm
16/09:00am WNW 10-15 kts 27.7°c 1006.8 hPa 62% 1.2mm
16/08:30am NW 11-15 kts 27.2°c 1007.1 hPa 62% 1.2mm
16/08:00am NW 8-12 kts 26.6°c 1007.1 hPa 71% 1.2mm
16/07:30am NNW 8-14 kts 25.4°c 1007.3 hPa 75% 1.2mm
16/07:00am NNW 9-14 kts 25.0°c 1007.4 hPa 76% 1.2mm
16/06:30am NNW 8-11 kts 24.2°c 1007.2 hPa 81% 1.2mm
16/06:00am N 7-12 kts 24.2°c 1006.8 hPa 82% 1.2mm
16/05:30am N 8-12 kts 23.8°c 1006.8 hPa 82% 1.2mm
16/05:00am N 7-11 kts 23.6°c 1006.8 hPa 81% 1.2mm
16/04:30am N 6-9 kts 23.9°c 1006.8 hPa 81% 1.2mm
16/04:00am WNW 4-7 kts 24.6°c 1006.7 hPa 78% 0.0mm
16/03:30am NNW 7-11 kts 24.6°c 1006.4 hPa 79% 0.0mm
16/03:00am NNE 9-13 kts 24.8°c 1005.7 hPa 79% 0.0mm
16/02:30am N 9-13 kts 24.8°c 1006.0 hPa 80% 0.0mm
16/02:00am NE 9-12 kts 24.7°c 1006.0 hPa 80% 0.0mm
16/01:30am N 1-5 kts 24.9°c 1006.9 hPa 78% 0.0mm
16/01:00am WNW 2-5 kts 25.2°c 1007.6 hPa 77% 0.0mm
16/12:30am NNW 6-10 kts 25.1°c 1007.1 hPa 77% 0.0mm
16/12:00am NNE 8-11 kts 25.2°c 1006.4 hPa 77% 0.0mm
Time Wind Speed Temp Pressure Rel. Hum Rain
15/11:30pm NE 7-9 kts 25.3°c 1006.7 hPa 77% 0.0mm
15/11:00pm SW 4-5 kts 25.4°c 1007.8 hPa 74% 0.0mm
15/10:30pm NNW 6-11 kts 25.1°c 1008.0 hPa 75% 0.0mm
15/10:00pm N 7-10 kts 25.1°c 1007.1 hPa 76% 0.0mm
15/09:30pm N 6-12 kts 24.9°c 1007.5 hPa 75% 0.0mm
15/09:00pm N 7-12 kts 24.8°c 1006.8 hPa 75% 0.0mm
15/08:30pm N 9-13 kts 25.0°c 1006.4 hPa 74% 0.0mm
15/08:00pm N 9-13 kts 25.2°c 1006.8 hPa 72% 0.0mm
15/07:30pm N 9-17 kts 25.8°c 1006.6 hPa 73% 0.0mm
15/07:00pm NNE 15-21 kts 25.9°c 1006.1 hPa 73% 0.0mm
15/06:30pm NNE 14-19 kts 26.2°c 1005.9 hPa 73% 0.0mm
15/06:00pm NNE 14-19 kts 26.6°c 1005.5 hPa 71% 0.0mm
15/05:30pm NNE 13-19 kts 26.9°c 1005.3 hPa 68% 0.0mm
15/05:00pm NNE 13-20 kts 27.5°c 1005.2 hPa 66% 0.0mm
15/04:30pm NNE 14-20 kts 27.8°c 1005.3 hPa 67% 0.0mm
15/04:00pm NNE 14-19 kts 28.4°c 1005.7 hPa 65% 0.0mm
15/03:30pm NNE 13-19 kts 28.7°c 1006.1 hPa 64% 0.0mm
15/03:00pm NNE 14-18 kts 28.6°c 1006.5 hPa 62% 0.0mm
15/02:30pm NNE 14-21 kts 29.3°c 1006.6 hPa 59% 0.0mm
15/02:00pm NNE 15-20 kts 29.3°c 1007.2 hPa 58% 0.0mm
15/01:30pm NNE 14-17 kts 29.6°c 1007.3 hPa 58% 0.0mm
15/01:00pm NNE 13-17 kts 29.6°c 1007.7 hPa 60% 0.0mm
15/12:30pm NNE 13-16 kts 29.4°c 1008.1 hPa 61% 0.0mm
15/12:00pm NE 12-15 kts 29.3°c 1008.5 hPa 63% 0.0mm
15/11:30am NE 13-15 kts 28.9°c 1008.8 hPa 62% 0.0mm
15/11:00am NE 13-15 kts 29.5°c 1009.0 hPa 61% 0.0mm
15/10:30am NE 13-15 kts 28.3°c 1009.2 hPa 60% 0.0mm
15/10:00am NE 11-13 kts 29.3°c 1009.5 hPa 63% 0.0mm
15/09:30am NE 10-11 kts 28.2°c 1009.6 hPa 65% 0.0mm
15/09:00am NE 7-8 kts 27.0°c 1009.9 hPa 64% 0.0mm
15/08:30am NW 4-6 kts 26.7°c 1010.0 hPa 61% 0.0mm
15/08:00am NW 4-6 kts 26.2°c 1009.9 hPa 64% 0.0mm
15/07:30am W 6-9 kts 25.3°c 1009.8 hPa 66% 0.0mm
15/07:00am WSW 6-8 kts 24.7°c 1010.1 hPa 71% 0.0mm
15/06:30am W 5-7 kts 23.1°c 1010.0 hPa 76% 0.0mm
15/06:00am WSW 5-7 kts 22.1°c 1009.9 hPa 81% 0.0mm
15/05:30am WSW 5-6 kts 21.6°c 1009.4 hPa 84% 0.0mm
15/05:00am W 4-6 kts 21.2°c 1009.0 hPa 84% 0.0mm
15/04:30am WNW 4-5 kts 21.4°c 1008.7 hPa 84% 0.0mm
15/04:00am WNW 4-5 kts 21.6°c 1008.8 hPa 84% 0.0mm
15/03:30am WSW 3-5 kts 21.5°c 1008.9 hPa 83% 0.0mm
15/03:00am WSW 4-5 kts 21.6°c 1009.0 hPa 83% 0.0mm
15/02:30am WSW 5-6 kts 21.9°c 1009.2 hPa 82% 0.0mm
15/02:00am WSW 4-5 kts 22.0°c 1009.4 hPa 81% 0.0mm
15/01:30am WSW 4-6 kts 22.3°c 1009.5 hPa 81% 0.0mm
15/01:00am WSW 3-5 kts 22.6°c 1009.6 hPa 79% 0.0mm
15/12:30am SW 4-5 kts 22.9°c 1009.9 hPa 78% 0.0mm
15/12:00am SW 2-4 kts 23.3°c 1010.5 hPa 76% 0.0mm
Time Wind Speed Temp Pressure Rel. Hum Rain
14/11:30pm NE 6-7 kts 24.1°c 1010.9 hPa 76% 0.0mm
14/11:00pm ENE 7-8 kts 24.7°c 1011.1 hPa 76% 0.0mm
14/10:30pm E 5-7 kts 24.4°c 1011.4 hPa 75% 0.0mm
14/10:00pm E 6-9 kts 24.7°c 1011.4 hPa 76% 0.0mm
14/09:30pm ENE 8-10 kts 24.6°c 1011.4 hPa 74% 0.0mm
14/09:00pm E 9-11 kts 24.7°c 1011.4 hPa 75% 0.0mm
14/08:30pm E 9-11 kts 24.7°c 1011.4 hPa 75% 0.0mm
14/08:00pm ESE 8-10 kts 24.7°c 1011.5 hPa 75% 0.0mm
14/07:30pm ESE 9-11 kts 24.8°c 1011.3 hPa 72% 0.0mm
14/07:00pm ESE 9-11 kts 24.4°c 1011.1 hPa 67% 0.0mm
14/06:30pm ESE 9-11 kts 25.2°c 1010.8 hPa 73% 0.0mm
14/06:00pm ESE 11-13 kts 25.4°c 1010.7 hPa 70% 0.0mm
14/05:30pm ESE 11-12 kts 25.8°c 1010.5 hPa 66% 0.0mm
14/05:00pm ESE 10-13 kts 26.2°c 1010.4 hPa 61% 0.0mm
14/04:30pm ESE 10-12 kts 26.4°c 1010.4 hPa 58% 0.0mm
14/04:00pm ESE 12-14 kts 26.3°c 1010.6 hPa 58% 0.0mm
14/03:30pm ESE 13-15 kts 26.7°c 1010.7 hPa 61% 0.0mm
14/03:00pm E 14-16 kts 26.5°c 1011.0 hPa 61% 0.0mm
14/02:30pm ESE 13-15 kts 26.9°c 1011.1 hPa 64% 0.0mm
14/02:00pm E 13-15 kts 26.9°c 1011.5 hPa 62% 0.0mm
14/01:30pm ESE 13-15 kts 27.2°c 1011.7 hPa 62% 0.0mm
14/01:00pm ESE 12-14 kts 27.4°c 1011.9 hPa 63% 0.0mm
14/12:30pm ESE 11-12 kts 28.2°c 1012.1 hPa 63% 0.0mm
14/12:00pm ESE 10-11 kts 27.4°c 1012.7 hPa 63% 0.0mm
14/11:30am E 8-10 kts 27.1°c 1013.0 hPa 62% 0.0mm
14/11:00am SE 7-8 kts 27.1°c 1013.4 hPa 62% 0.0mm
14/10:30am SE 7-9 kts 26.7°c 1013.6 hPa 62% 0.0mm
14/10:00am SE 6-8 kts 26.9°c 1013.6 hPa 63% 0.0mm
14/09:30am SE 6-8 kts 26.2°c 1013.8 hPa 61% 0.0mm
14/09:00am SE 5-7 kts 26.1°c 1013.8 hPa 64% n/a
14/08:30am SSE 5-6 kts 26.0°c 1014.2 hPa 64% n/a
14/08:00am SSE 5-7 kts 25.7°c 1014.2 hPa 67% n/a
14/07:30am S 5-8 kts 24.5°c 1014.0 hPa 71% n/a
14/07:00am SSW 6-8 kts 23.5°c 1013.8 hPa 76% n/a
14/06:30am SSW 6-8 kts 22.5°c 1013.8 hPa 80% n/a
14/06:00am SW 5-7 kts 21.7°c 1013.7 hPa 84% n/a
14/05:30am SSW 4-6 kts 21.0°c 1013.4 hPa 86% n/a
14/05:00am SSW 4-6 kts 21.1°c 1013.5 hPa 86% n/a
14/04:30am SSW 5-7 kts 21.3°c 1013.3 hPa 86% n/a
14/04:00am SW 5-7 kts 21.4°c 1013.1 hPa 86% n/a
14/03:30am SW 6-8 kts 21.4°c 1013.2 hPa 85% n/a
14/03:00am SW 6-9 kts 21.5°c 1013.2 hPa 86% 1.0mm
14/02:30am SSW 4-6 kts 21.5°c 1013.2 hPa 87% n/a
14/02:00am SSW 5-8 kts 21.1°c 1013.5 hPa 87% n/a
14/01:30am SW 7-9 kts 21.2°c 1013.8 hPa 87% n/a
14/01:00am SSW 6-9 kts 21.5°c 1014.2 hPa 88% n/a
14/12:30am S 7-11 kts 21.4°c 1014.6 hPa 88% n/a
14/12:00am S 8-12 kts 21.4°c 1015.1 hPa 89% n/a